USA 81

Last updated on Wed Nov 05 2025 00:02:14 GMT+0000 (Coordinated Universal Time)

1 21949U 92023A 25308.47119663 .00000231 00000+0 78246-4 0 9992 2 21949 85.0116 203.6399 0002784 83.4216 276.7293 14.32305352 76866
UTC large
Height (km)
Speed (km/s)
/
Latitude / Longitude
Inclination (degrees)
Orbital Period (minutes)
Azimuth
Elevation
Range (km)
Doppler Factor

Next 0 passes for location: London (51.5072 / 0.1276)

Sorry there are no passes over London.